Flag for Germany Weather past 2 weeks in Speyer, Rhineland-Palatinate, Germany

39 °F

Light rain. Partly sunny.

Feels Like: 34 °F
Forecast: 32 / 41 °F
Wind: 7 mph from Southwest

Location: Baden Wurttemberg - Neuostheim

Current Time: Nov 25, 2015 at 12:08:09 PM

Latest Report: Nov 25, 2015 at 11:20 AM

Visibility: N/A

Pressure: 29.77 "Hg

Humidity: 93%

Dew point: 37 °F

Location of SpeyerLocation

Historic Weather in Speyer — Graph


Speyer temperature yesterday

Maximum temperature yesterday: 37 °F (at 1:20 PM)
Minimum temperature yesterday: 30 °F (at 5:20 AM)
Average temperature yesterday: 35 °F

Past Weeks' High & Low Weather Summary

High63 °F (Nov 10, 3:20 PM)100% (Nov 12, 7:50 PM)30.42 "Hg (Nov 12, 7:50 PM)
Low30 °F (Nov 24, 5:20 AM)51% (Nov 16, 10:20 AM)29.42 "Hg (Nov 21, 11:50 AM)
Average49 °F77%30.07 "Hg
* Reported Nov 10 10:20 AM — Nov 25 10:50 AM, Speyer, Weather by CustomWeather, © 2015

Note: Actual official high and low records may vary slightly from our data, if they occured in-between our weather recording intervals... More about our weather records


Speyer weather history for previous 24 hours

Time TempWeatherWind HumidityBarometerVisibility
10:50 AM
Wed, Nov 25
37 °FLight rain. Mostly cloudy.7 mph100%29.80 "HgN/A
10:20 AM37 °FLight rain. Broken clouds.7 mph93%29.80 "HgN/A
9:50 AM37 °FLight rain. Partly sunny.7 mph93%29.80 "HgN/A
9:20 AM37 °FPartly sunny.9 mph93%29.80 "HgN/A
8:50 AM37 °FLight rain. Broken clouds.8 mph93%29.80 "HgN/A
7:50 AM36 °FLight rain. Partly cloudy.10 mph93%29.80 "HgN/A
7:20 AM36 °FLight rain. Partly cloudy.8 mph100%29.80 "HgN/A
6:50 AM34 °FLight rain. Partly cloudy.7 mph100%29.80 "HgN/A
6:20 AM36 °FLight rain. Partly cloudy.8 mph93%29.80 "HgN/A
5:50 AM36 °FLight rain. Partly cloudy.7 mph93%29.80 "HgN/A
5:20 AM36 °FLight rain. Partly cloudy.7 mph93%29.80 "HgN/A
9:20 PM
Tue, Nov 24
37 °FPartly cloudy.10 mph75%29.98 "HgN/A
8:50 PM37 °FLight snow. Passing clouds.8 mph75%29.98 "HgN/A
8:20 PM37 °FPassing clouds.9 mph75%30.01 "HgN/A
7:50 PM37 °FPassing clouds.7 mph75%30.01 "HgN/A
7:20 PM37 °FPassing clouds.8 mph81%30.04 "HgN/A
6:50 PM37 °FLight rain. Passing clouds.10 mph81%30.04 "HgN/A
6:20 PM37 °FPassing clouds.8 mph75%30.07 "HgN/A
5:50 PM37 °FPassing clouds.7 mph75%30.07 "HgN/A
5:20 PM37 °FMostly cloudy.7 mph75%30.07 "HgN/A
4:50 PM37 °FPassing clouds.9 mph75%30.09 "HgN/A
4:20 PM37 °FPassing clouds.8 mph75%30.09 "HgN/A
3:50 PM37 °FPassing clouds.9 mph75%30.09 "HgN/A
3:20 PM37 °FPassing clouds.8 mph75%30.12 "HgN/A
2:50 PM37 °FPassing clouds.10 mph75%30.12 "HgN/A
2:20 PM37 °FBroken clouds.7 mph75%30.15 "HgN/A
1:50 PM37 °FPartly sunny.8 mph81%30.15 "HgN/A
1:20 PM37 °FPartly sunny.8 mph81%30.18 "HgN/A
12:50 PM36 °FPartly sunny.9 mph87%30.18 "HgN/A
12:20 PM36 °FPassing clouds.9 mph87%30.21 "HgN/A
Weather by CustomWeather, © 2015

See weather overviewHow to use our weather pages